Regional Weather Roundup
Issued by NWS Little Rock, AR

Home | Current Version | Previous Version | Graphics & Text | Print | Product List | Glossary On
Versions: 1 2 3 4 5 6 7 8 9 10 11 12 13 14 15 16 17 18 19 20 21 22 23 24 25 26 27 28 29 30 31
000
ASUS44 KLZK 182005
RWRLZK

WEATHER ROUNDUP FOR ARKANSAS
NATIONAL WEATHER SERVICE LITTLE ROCK AR
200 PM CST SAT FEB 18 2017

NOTE: "FAIR" INDICATES FEW OR NO CLOUDS BELOW 12,000 FEET WITH NO
SIGNIFICANT WEATHER AND/OR OBSTRUCTIONS TO VISIBILITY.

ARZ001-003-010-029-182100-
NORTHWEST ARKANSAS

CITY           SKY/WX    TMP DP  RH WIND       PRES   REMARKS
FAYETTEVILLE   MOSUNNY   68  49  50 SW8       29.81F
FORT SMITH     MOSUNNY   67  50  54 VRB5      29.82F
HARRISON       CLOUDY    68  47  46 VRB5      29.82F
BENTONVILLE    MOSUNNY   66  48  52 W8        29.83F
ROGERS         MOSUNNY   67  50  54 NW8       29.83F
SILOAM SPGS    PTSUNNY   64  50  59 NW6       29.82F
HIGHFILL       MOSUNNY   69  51  52 VRB3      29.81F
SPRINGDALE     MOSUNNY   68  48  49 W6        29.83F
$$

ARZ004-005-016-182100-
NORTH CENTRAL ARKANSAS

CITY           SKY/WX    TMP DP  RH WIND       PRES   REMARKS
BATESVILLE     MOSUNNY   66  54  63 S8        29.85S
FLIPPIN        PTSUNNY   66  45  45 NE3       29.80F
MTN HOME       MOSUNNY   65  47  52 VRB3      29.82F
$$

ARZ040-041-182100-
WEST CENTRAL ARKANSAS

CITY           SKY/WX    TMP DP  RH WIND       PRES   REMARKS
MENA           CLOUDY    64  59  82 S6        29.84F
MOUNT IDA      CLOUDY    62  54  74 MISG      29.82F
$$

ARZ009-017-025-026-028-182100-
NORTHEAST ARKANSAS

CITY           SKY/WX    TMP DP  RH WIND       PRES   REMARKS
CORNING        CLOUDY    57  55  94 S5        29.87F
JONESBORO      PTSUNNY   61  54  77 S7        29.85F
NEWPORT        CLOUDY    59  53  80 S13       29.86S
WALNUT RIDGE   CLOUDY    61  52  72 S10       29.86F
BLYTHEVILLE    CLOUDY    60  54  80 MISG      29.88F
$$

ARZ022-023-033-042-044-182100-
CENTRAL ARKANSAS

CITY           SKY/WX    TMP DP  RH WIND       PRES   REMARKS
LITTLE ROCK    PTSUNNY   65  54  67 SW9       29.87F
N LITTLE ROCK    N/A     63  54  73 SW5       29.86F
JACKSONVILLE   PTSUNNY   64  54  68 S5        29.85F
SEARCY         CLOUDY    63  55  75 S9        29.87F
HOT SPRINGS    CLOUDY    62  56  80 SE5       29.86F
RUSSELLVILLE   SUNNY     69  51  52 VRB6      29.82F
CLINTON        FAIR      68  52  56 S7        29.83F
$$

ARZ036-182100-
EAST ARKANSAS

CITY           SKY/WX    TMP DP  RH WIND       PRES   REMARKS
WEST MEMPHIS   CLOUDY    60  55  83 VRB3      29.88F
$$

ARZ050-053-066-070-073-182100-
SOUTHWEST ARKANSAS

CITY           SKY/WX    TMP DP  RH WIND       PRES   REMARKS
ARKADELPHIA    CLOUDY    62  57  83 S7        29.87F
CAMDEN         PTSUNNY   64  54  68 S3        29.87F
TEXARKANA      CLOUDY    60  58  92 E6        29.84F
EL DORADO      CLOUDY    63  56  78 SE7       29.87F
DE QUEEN       CLOUDY    61  57  87 SE6       29.83F
$$

ARZ056-057-069-182100-
SOUTHEAST ARKANSAS

CITY           SKY/WX    TMP DP  RH WIND       PRES   REMARKS
PINE BLUFF     CLOUDY    64  56  75 S6        29.87F
STUTTGART      PTSUNNY   63  48  59 S5        29.88F
MONTICELLO     CLOUDY    64  53  67 SW9       29.88F

$$






USA.gov is the U.S. government's official web portal to all federal, state and local government web resources and services.